Fargo, ND

1:26 AM CST on December 06, 2016 (GMT -0600)
Hector International

Weather History for KFAR - October, 2013

Change the Weather History Date:

Saturday, October 19, 2013

  Actual Average Record
Temperature  
Mean Temperature 40 °F 44 °F  
Max Temperature 47 °F 55 °F 84 °F (2003)
Min Temperature 32 °F 34 °F 12 °F (1917)
Degree Days  
Heating Degree Days 25 21  
Month to date heating degree days 280 319  
Since 1 July heating degree days 405 589  
Cooling Degree Days 0 0  
Month to date cooling degree days 0 0  
Year to date cooling degree days 699 548  
Moisture  
Dew Point 32 °F    
Average Humidity 79    
Maximum Humidity 92    
Minimum Humidity 65    
Precipitation  
Precipitation 0.02 in 0.07 in 1.26 in (1934)
Month to date precipitation 3.84 1.47  
Year to date precipitation 30.15 20.10  
Snow  
Snow T in 0.00 in 0.40 in (1913)
Month to date snowfall T 0.2  
Since 1 July snowfall T 0.2  
Since 1 September snowfall T 0.2  
Snow Depth 0.00 in    
Sea Level Pressure  
Sea Level Pressure 29.77 in    
Wind  
Wind Speed 7 mph (NW)    
Max Wind Speed 18 mph    
Max Gust Speed 23 mph    
Visibility 10 miles    
Events Rain    
T = Trace of Precipitation, MM = Missing Value Source: NWS Daily Summary

Daily Weather History Graph

Daily Weather History Graph

Search for Another Location

Airport or City:

Trip Planner

Search our weather history database for the weather conditions in past years. The results will help you decide how hot, cold, wet, or windy it might be!

Date:

Astronomy

Oct. 19, 2013 Rise Set
Actual Time 7:51 AM CDT 6:32 PM CDT
Civil Twilight 7:20 AM CDT 7:03 PM CDT
Nautical Twilight 6:45 AM CDT 7:38 PM CDT
Astronomical Twilight 6:09 AM CDT 8:13 PM CDT
Moon 6:56 PM CDT (10/19) 8:33 AM CDT (10/19)
Length of Visible Light 11h 42m
Length of Day
10h 41m
Waxing Gibbous, 99% of the Moon is Illuminated
Oct 19
Waxing Gibbous
Oct 26
Last Quarter
Nov 3
New
Nov 9
First Quarter
Nov 17
Full

Hourly Weather History & Observations

Time (CDT) Temp. Windchill Dew Point Humidity Pressure Visibility Wind Dir Wind Speed Gust Speed Precip Events Conditions
12:53 AM 39.0 °F 32.3 °F 35.1 °F 86% 29.77 in 10.0 mi WSW 10.4 mph - N/A   Overcast
1:53 AM 37.0 °F 33.3 °F 34.0 °F 89% 29.75 in 10.0 mi SW 4.6 mph - N/A   Overcast
2:53 AM 36.0 °F 31.1 °F 33.1 °F 89% 29.74 in 10.0 mi SW 5.8 mph - N/A   Mostly Cloudy
3:29 AM 37.4 °F 33.8 °F 33.8 °F 87% 29.71 in 10.0 mi SW 4.6 mph - 0.01 in   Overcast
3:53 AM 37.0 °F 33.3 °F 34.0 °F 89% 29.73 in 10.0 mi SSW 4.6 mph - 0.01 in   Overcast
4:53 AM 37.9 °F 34.4 °F 34.0 °F 86% 29.72 in 10.0 mi WSW 4.6 mph - N/A   Overcast
5:43 AM 37.4 °F 32.8 °F 35.6 °F 93% 29.70 in 10.0 mi West 5.8 mph - 0.00 in Rain Light Rain
5:53 AM 37.9 °F 30.5 °F 34.0 °F 86% 29.73 in 10.0 mi WNW 11.5 mph - 0.00 in   Overcast
6:04 AM 37.4 °F 30.3 °F 33.8 °F 87% 29.70 in 10.0 mi NW 10.4 mph - N/A   Overcast
6:18 AM 37.4 °F 28.2 °F 33.8 °F 87% 29.71 in 10.0 mi NW 16.1 mph 19.6 mph N/A   Overcast
6:31 AM 35.6 °F 26.2 °F 30.2 °F 81% 29.72 in 10.0 mi NNW 15.0 mph - N/A   Scattered Clouds
6:53 AM 35.1 °F 27.4 °F 28.9 °F 78% 29.75 in 10.0 mi North 10.4 mph - N/A   Partly Cloudy
7:53 AM 33.1 °F 30.0 °F 28.9 °F 85% 29.76 in 10.0 mi NNW 3.5 mph - N/A   Mostly Cloudy
8:53 AM 36.0 °F 29.0 °F 28.9 °F 76% 29.78 in 10.0 mi NW 9.2 mph - N/A   Overcast
9:41 AM 37.4 °F 30.3 °F 30.2 °F 75% 29.75 in 10.0 mi NW 10.4 mph - N/A   Overcast
9:53 AM 37.9 °F 30.0 °F 30.0 °F 73% 29.78 in 10.0 mi NNW 12.7 mph - N/A   Overcast
10:53 AM 37.9 °F 30.0 °F 30.9 °F 76% 29.80 in 10.0 mi NW 12.7 mph - N/A   Overcast
11:53 AM 39.9 °F 33.4 °F 32.0 °F 73% 29.80 in 10.0 mi NW 10.4 mph - N/A   Overcast
12:53 PM 39.9 °F 32.9 °F 32.0 °F 73% 29.81 in 10.0 mi NW 11.5 mph - 0.01 in   Overcast
1:53 PM 41.0 °F 34.7 °F 30.9 °F 67% 29.81 in 10.0 mi NNW 10.4 mph - N/A   Overcast
2:53 PM 42.1 °F 37.1 °F 32.0 °F 67% 29.80 in 10.0 mi North 8.1 mph - N/A   Overcast
3:30 PM 42.8 °F 38.6 °F 32.0 °F 66% 29.77 in 10.0 mi NNW 6.9 mph - N/A   Mostly Cloudy
3:53 PM 43.0 °F 40.3 °F 32.0 °F 65% 29.80 in 10.0 mi North 4.6 mph - N/A   Scattered Clouds
4:24 PM 46.4 °F 42.4 °F 32.0 °F 57% 29.77 in 10.0 mi North 8.1 mph - N/A   Overcast
4:31 PM 44.6 °F 40.7 °F 30.2 °F 57% 29.77 in 10.0 mi NNE 6.9 mph - N/A   Mostly Cloudy
4:53 PM 43.0 °F 39.5 °F 33.1 °F 68% 29.80 in 10.0 mi East 5.8 mph - N/A   Mostly Cloudy
5:53 PM 42.1 °F - 32.0 °F 67% 29.80 in 10.0 mi Calm Calm - N/A   Partly Cloudy
6:53 PM 37.9 °F 34.4 °F 32.0 °F 79% 29.81 in 10.0 mi ESE 4.6 mph - N/A   Clear
7:53 PM 37.0 °F 33.3 °F 32.0 °F 82% 29.81 in 10.0 mi SE 4.6 mph - N/A   Clear
8:53 PM 37.0 °F 33.3 °F 32.0 °F 82% 29.80 in 10.0 mi SE 4.6 mph - N/A   Overcast
9:53 PM 37.9 °F 32.7 °F 30.9 °F 76% 29.78 in 10.0 mi SE 6.9 mph - N/A   Overcast
10:53 PM 37.0 °F 31.6 °F 28.9 °F 73% 29.77 in 10.0 mi SSE 6.9 mph - N/A   Mostly Cloudy
11:53 PM 37.9 °F 32.1 °F 28.9 °F 70% 29.74 in 10.0 mi SSE 8.1 mph - N/A   Overcast